Date,TemperatureHighF,TemperatureAvgF,TemperatureLowF,DewpointHighF,DewpointAvgF,DewpointLowF,HumidityHigh,HumidityAvg,HumidityLow,PressureMaxIn,PressureMinIn,WindSpeedMaxMPH,WindSpeedAvgMPH,GustSpeedMaxMPH,PrecipitationSumIn
2013-1-1,35.7,31.9,20.2,28.0,20.5,9.0,74,63,52,30.22,30.05,9,3,19,0.01
2013-1-2,27.6,21.5,15.0,18.0,13.1,9.0,82,70,60,30.39,30.20,8,2,13,0.01
2013-1-3,27.9,16.9,3.1,18.0,8.2,-3.0,82,69,51,30.45,30.29,6,1,8,0.00
2013-1-4,36.9,31.8,27.4,24.0,21.4,19.0,76,66,55,30.28,30.14,9,3,16,0.03
2013-1-5,40.3,32.6,26.5,25.0,22.4,19.0,83,67,52,30.49,30.21,9,2,21,0.10
2013-1-6,43.7,34.5,27.7,29.0,26.7,23.0,89,74,56,30.44,30.18,7,1,11,0.14
2013-1-7,43.7,35.3,27.7,30.0,25.6,21.0,81,69,49,30.61,30.26,9,2,15,0.05
2013-1-8,45.1,35.0,26.9,30.0,26.6,22.0,86,72,56,30.63,30.54,6,1,11,0.01
2013-1-9,45.7,36.7,28.5,38.0,30.0,24.0,86,77,68,30.60,30.34,15,1,20,0.01
2013-1-10,47.2,39.2,32.7,32.0,25.3,23.0,73,58,40,30.77,30.41,9,2,18,0.00
2013-1-11,37.3,33.7,29.1,37.0,29.4,24.0,98,85,68,30.76,30.35,3,0,7,0.37
2013-1-12,42.9,38.8,35.7,42.0,38.4,35.0,99,98,97,30.39,30.32,4,0,5,0.41
2013-1-13,42.2,40.0,37.6,42.0,39.9,37.0,100,99,99,30.36,30.22,3,0,7,0.01
2013-1-14,55.6,44.1,34.7,50.0,40.1,26.0,100,87,68,30.51,30.11,6,2,16,0.04
2013-1-15,35.9,32.8,29.9,29.0,25.4,23.0,87,74,65,30.57,30.45,5,1,7,0.03
2013-1-16,33.9,29.9,27.5,32.0,28.4,23.0,97,94,70,30.46,30.05,7,1,8,0.00
2013-1-17,40.2,34.1,25.5,32.0,27.2,14.0,92,76,63,30.33,30.12,10,3,16,0.30
2013-1-18,28.0,22.4,18.7,15.0,8.8,5.0,69,57,40,30.69,30.26,7,3,15,0.30
2013-1-19,44.4,33.2,23.5,30.0,22.4,12.0,79,65,51,30.60,30.11,7,1,12,0.07
2013-1-20,50.6,36.8,25.2,31.0,22.9,8.0,88,60,30,30.25,29.87,10,2,17,0.02
2013-1-21,27.5,23.9,20.4,20.0,13.1,7.0,90,64,48,30.30,30.04,6,1,17,0.02
2013-1-22,21.7,15.6,8.6,16.0,0.3,-8.0,77,52,38,30.41,30.04,12,4,21,0.00
2013-1-23,15.8,9.9,5.7,-1.0,-3.1,-7.0,72,57,41,30.48,30.39,10,2,18,0.00
2013-1-24,21.3,10.5,0.9,4.0,-1.1,-5.0,84,61,38,30.61,30.38,14,4,23,0.00
2013-1-25,23.0,15.3,9.3,14.0,5.5,0.0,91,67,42,30.64,30.30,7,1,17,0.00
2013-1-26,27.6,17.3,9.6,13.0,8.2,5.0,89,70,46,30.59,30.28,7,2,16,0.00
2013-1-27,35.1,22.1,13.5,13.0,8.9,4.0,82,60,31,30.76,30.59,7,2,14,0.00
2013-1-28,31.4,26.2,19.7,31.0,21.9,9.0,97,84,62,30.72,30.23,4,1,11,0.00
2013-1-29,48.6,38.5,31.5,40.0,36.0,31.0,98,91,67,30.36,30.22,6,1,12,0.04
2013-1-30,51.3,43.8,35.3,51.0,43.7,35.0,100,99,98,30.30,29.56,6,1,12,0.33
2013-1-31,57.3,42.4,26.5,57.0,31.6,10.0,100,68,37,29.93,29.21,18,5,26,1.21
2013-2-1,29.5,24.8,19.9,13.0,8.8,3.0,63,51,36,30.42,29.93,10,4,18,0.00
2013-2-2,28.1,20.9,15.5,17.0,10.4,5.0,89,66,38,30.50,30.29,7,2,15,0.00
2013-2-3,28.8,21.5,13.6,20.0,16.2,12.0,94,81,61,30.28,30.02,5,0,7,0.04
2013-2-4,29.0,23.2,18.8,20.0,11.1,5.0,87,61,39,30.19,30.02,12,3,19,0.04
2013-2-5,28.9,24.3,20.3,24.0,20.2,12.0,94,85,65,30.23,30.13,3,0,5,0.01
2013-2-6,36.2,28.7,21.5,26.0,19.5,8.0,95,71,46,30.58,30.14,11,2,16,0.04
2013-2-7,31.6,22.8,15.1,18.0,9.4,2.0,73,57,40,30.75,30.57,3,0,7,0.04
2013-2-8,30.2,27.7,24.1,28.0,24.5,18.0,96,88,70,30.60,29.91,9,2,25,0.00
2013-2-9,30.2,23.9,14.7,23.0,14.4,3.0,95,70,43,30.57,30.00,12,6,24,0.14
2013-2-10,38.6,20.4,7.4,16.0,5.8,1.0,74,56,23,30.73,30.56,5,1,8,0.05
2013-2-11,40.1,33.2,25.0,40.0,31.4,16.0,99,93,69,30.56,29.90,4,0,10,0.16
2013-2-12,41.0,37.3,34.4,35.0,27.7,24.0,96,69,57,30.17,29.92,13,3,22,0.02
2013-2-13,45.0,35.2,27.1,30.0,24.2,21.0,94,66,44,30.15,29.91,4,1,7,0.02
2013-2-14,44.7,34.0,25.2,30.0,26.3,23.0,96,75,47,30.21,29.93,7,0,8,0.05
2013-2-15,52.4,40.3,30.3,33.0,28.9,24.0,90,66,41,30.22,30.11,9,1,11,0.04
2013-2-16,35.1,30.6,25.9,32.0,23.3,12.0,95,76,57,30.19,29.98,6,2,13,0.02
2013-2-17,29.1,22.0,13.5,14.0,5.1,0.0,62,49,33,30.17,29.88,18,6,24,0.02
2013-2-18,32.0,22.5,13.4,12.0,5.7,1.0,64,50,36,30.44,30.18,15,4,22,0.00
2013-2-19,39.2,32.4,23.3,37.0,25.2,12.0,97,76,54,30.43,29.89,5,1,16,0.18
2013-2-20,34.5,27.4,21.9,27.0,14.9,10.0,76,60,48,30.16,29.90,14,5,24,0.18
2013-2-21,31.8,24.4,20.2,15.0,12.7,11.0,74,62,48,30.56,30.16,10,5,24,0.00
2013-2-22,38.8,29.2,20.2,27.0,20.8,14.0,83,72,50,30.66,30.51,6,2,12,0.00
2013-2-23,37.7,33.9,30.6,37.0,32.4,27.0,97,94,83,30.50,30.06,4,1,9,0.09
2013-2-24,40.7,34.2,29.5,37.0,31.7,24.0,98,90,70,30.18,29.97,9,2,15,0.13
2013-2-25,44.7,35.0,27.4,31.0,25.9,22.0,84,70,51,30.46,30.19,6,1,10,0.02
2013-2-26,40.3,34.6,27.3,30.0,26.9,23.0,91,74,58,30.53,30.18,8,1,12,0.09
2013-2-27,43.6,39.1,32.8,42.0,37.1,31.0,97,92,83,30.18,29.71,8,2,18,0.12
2013-2-28,48.3,39.9,34.8,38.0,34.7,31.0,97,83,62,29.82,29.75,5,1,10,0.07
2013-3-1,44.0,36.1,32.0,33.0,29.4,25.0,95,77,59,29.99,29.81,7,2,10,0.07
2013-3-2,39.3,32.8,27.2,26.0,24.4,23.0,91,72,56,29.99,29.91,6,2,10,0.00
2013-3-3,38.2,29.5,25.9,27.0,20.7,17.0,83,70,51,29.98,29.88,6,2,12,0.00
2013-3-4,38.3,29.9,24.8,21.0,19.3,16.0,79,65,50,30.13,29.97,12,4,20,0.00
2013-3-5,46.7,35.3,26.8,27.0,24.6,21.0,80,66,47,30.25,30.12,8,2,12,0.00
2013-3-6,41.2,36.3,32.9,36.0,29.7,27.0,91,77,67,30.22,30.14,10,3,18,0.01
2013-3-7,34.9,32.3,29.8,31.0,28.7,26.0,96,87,71,30.32,30.19,9,4,17,0.03
2013-3-8,37.4,32.2,28.4,33.0,29.3,26.0,96,89,71,30.45,30.24,14,5,17,0.16
2013-3-9,53.6,39.7,29.5,27.0,23.7,18.0,78,55,26,30.54,30.44,9,3,13,0.05
2013-3-10,50.8,39.2,28.9,35.0,29.6,23.0,90,70,42,30.60,30.48,7,1,13,0.05
2013-3-11,51.3,41.5,34.5,44.0,38.1,32.0,97,88,67,30.52,30.29,5,1,13,0.00
2013-3-12,52.7,47.4,39.9,52.0,46.0,38.0,98,94,82,30.29,29.88,7,2,20,0.99
2013-3-13,48.3,39.2,31.2,37.0,29.7,22.0,94,72,40,30.09,29.99,6,2,17,0.99
2013-3-14,34.5,29.8,24.2,28.0,13.1,5.0,79,51,30,30.15,30.05,14,4,24,0.00
2013-3-15,39.2,32.4,25.3,31.0,19.5,8.0,79,60,42,30.17,29.94,8,3,21,0.00
2013-3-16,35.9,31.0,26.5,28.0,22.2,16.0,93,71,46,30.12,29.99,7,1,12,0.03
2013-3-17,37.8,30.0,23.9,28.0,17.1,10.0,93,62,34,30.54,30.14,6,2,11,0.01
2013-3-18,34.3,26.2,18.9,27.0,13.6,7.0,95,62,37,30.65,30.30,5,1,9,0.01
2013-3-19,38.4,33.0,27.9,35.0,30.6,21.0,96,91,63,30.28,29.92,7,2,15,0.37
2013-3-20,41.6,32.1,26.8,23.0,20.3,16.0,77,63,37,30.08,30.00,6,2,17,0.15
2013-3-21,40.0,31.8,26.1,23.0,17.5,11.0,77,58,34,30.05,29.84,8,2,12,0.04
2013-3-22,37.5,30.9,23.9,24.0,19.1,12.0,77,62,50,30.08,29.93,9,3,15,0.04
2013-3-23,41.8,35.5,30.4,24.0,20.9,17.0,69,57,40,30.13,30.02,14,4,22,0.00
2013-3-24,45.6,35.9,27.6,25.0,21.8,17.0,72,58,42,30.16,29.94,9,2,12,0.00
2013-3-25,44.6,37.7,32.0,28.0,25.0,23.0,75,61,46,29.94,29.67,16,2,16,0.00
2013-3-26,51.3,39.6,32.8,32.0,27.6,24.0,83,64,42,30.07,29.81,8,2,14,0.00
2013-3-27,52.6,41.1,31.6,31.0,25.8,23.0,71,56,33,30.17,30.07,8,2,14,0.00
2013-3-28,48.9,40.8,34.0,34.0,30.5,28.0,80,67,53,30.32,30.16,10,3,16,0.00
2013-3-29,54.6,43.7,35.3,31.0,28.6,26.0,74,57,36,30.35,30.26,11,3,13,0.00
2013-3-30,56.3,44.8,33.7,31.0,25.5,19.0,82,51,24,30.37,30.27,7,2,14,0.00
2013-3-31,54.1,44.0,35.5,41.0,28.8,20.0,96,57,34,30.34,29.89,11,1,14,0.16
2013-4-1,59.6,43.9,32.6,47.0,34.4,12.0,97,72,37,30.10,29.81,11,3,22,0.01
2013-4-2,40.1,33.6,27.6,19.0,12.9,8.0,69,44,30,30.28,30.11,24,4,24,0.01
2013-4-3,44.1,34.6,28.6,15.0,13.2,10.0,57,42,26,30.51,30.27,14,4,22,0.00
2013-4-4,54.5,39.8,27.2,30.0,20.0,13.0,75,48,25,30.60,30.28,8,2,14,0.00
2013-4-5,62.3,46.6,34.8,30.0,22.0,14.0,75,42,20,30.27,29.93,9,3,19,0.00
2013-4-6,54.5,40.3,30.8,21.0,11.1,3.0,64,34,13,30.51,30.20,10,2,14,0.00
2013-4-7,56.5,45.5,32.8,41.0,32.2,21.0,91,62,34,30.51,30.18,12,3,19,0.00
2013-4-8,74.7,55.1,41.0,43.0,40.3,37.0,95,63,26,30.30,30.19,5,1,10,0.00
2013-4-9,77.2,63.4,48.7,51.0,43.6,38.0,91,54,25,30.18,30.10,10,2,20,0.00
2013-4-10,67.5,55.9,47.5,55.0,50.0,42.0,97,82,58,30.18,30.00,13,1,21,0.26
2013-4-11,58.6,48.3,37.4,55.0,40.1,29.0,98,75,51,30.28,30.01,8,3,11,0.26
2013-4-12,41.3,38.8,36.2,39.0,35.2,30.0,96,87,69,30.27,29.96,7,2,15,0.23
2013-4-13,55.3,45.4,35.5,40.0,35.2,32.0,98,71,46,30.16,29.99,8,2,11,0.25
2013-4-14,52.7,46.3,39.4,33.0,28.8,25.0,66,52,36,30.44,30.16,9,2,19,0.00
2013-4-15,60.2,47.5,35.4,35.0,29.8,25.0,69,52,33,30.58,30.44,6,1,13,0.00
2013-4-16,63.0,52.0,42.4,53.0,44.7,30.0,96,76,58,30.58,30.31,8,2,14,0.04
2013-4-17,69.8,57.1,47.5,56.0,40.4,32.0,98,59,27,30.49,30.32,7,2,10,0.07
2013-4-18,61.7,51.8,42.8,48.0,38.8,29.0,90,64,37,30.55,30.32,12,2,15,0.00
2013-4-19,70.8,59.8,50.8,63.0,57.2,48.0,99,91,75,30.31,29.82,11,2,21,0.46
2013-4-20,57.3,49.0,39.3,48.0,33.8,21.0,97,61,29,30.52,29.86,14,3,24,0.70
2013-4-21,54.0,42.0,29.8,24.0,20.8,18.0,72,45,25,30.84,30.53,7,2,12,0.00
2013-4-22,58.2,45.4,34.1,34.0,27.5,19.0,84,53,27,30.90,30.73,9,2,16,0.00
2013-4-23,52.7,41.4,31.9,41.0,35.0,28.0,88,78,63,30.73,30.34,6,2,8,0.00
2013-4-24,72.9,53.3,36.2,50.0,43.7,35.0,96,73,43,30.34,30.00,7,2,16,0.00
2013-4-25,65.8,53.3,42.8,51.0,28.9,19.0,94,44,18,30.46,30.04,13,3,21,0.00
2013-4-26,67.5,52.9,39.8,34.0,29.9,24.0,65,44,24,30.63,30.46,6,2,17,0.00
2013-4-27,71.3,55.0,38.1,33.0,27.5,16.0,67,39,15,30.64,30.48,7,1,11,0.00
2013-4-28,72.2,56.2,42.3,41.0,34.4,29.0,73,46,28,30.51,30.38,7,1,12,0.00
2013-4-29,55.6,52.0,49.4,50.0,44.7,32.0,90,77,47,30.44,30.39,4,1,9,0.02
2013-4-30,71.0,56.7,46.5,44.0,37.5,29.0,89,54,21,30.54,30.42,8,1,11,0.02
2013-5-1,73.6,57.7,41.9,44.0,32.8,22.0,80,43,17,30.68,30.54,8,1,12,0.00
2013-5-2,79.2,61.2,43.7,46.0,41.4,38.0,87,54,24,30.68,30.50,8,1,9,0.00
2013-5-3,73.5,59.1,46.7,43.0,37.1,31.0,85,48,22,30.65,30.52,12,2,12,0.00
2013-5-4,78.2,57.4,41.1,46.0,43.0,37.0,97,65,23,30.57,30.40,8,1,12,0.00
2013-5-5,71.7,52.9,37.7,43.0,39.7,32.0,98,67,24,30.50,30.39,7,1,11,0.00
2013-5-6,73.0,54.8,37.8,52.0,45.5,37.0,98,75,40,30.48,30.33,7,1,11,0.00
2013-5-7,78.0,62.6,47.4,57.0,51.6,46.0,98,71,33,30.37,30.27,7,1,10,0.00
2013-5-8,63.2,59.1,52.7,62.0,57.8,52.0,98,95,88,30.31,30.18,5,1,10,0.57
2013-5-9,70.6,57.0,49.4,59.0,54.3,49.0,100,91,63,30.21,30.08,2,0,7,0.44
2013-5-10,80.5,66.3,53.1,59.0,55.4,52.0,98,71,37,30.19,30.08,4,1,7,0.44
2013-5-11,66.2,62.0,58.3,65.0,60.7,56.0,99,95,84,30.08,29.88,6,1,8,1.08
2013-5-12,67.7,58.4,47.0,60.0,43.2,25.0,99,62,24,30.10,29.84,6,2,15,1.08
2013-5-13,54.5,46.0,37.8,35.0,30.2,25.0,86,56,35,30.31,30.10,7,2,15,0.00
2013-5-14,62.4,48.6,37.2,35.0,28.9,22.0,81,52,23,30.34,30.22,6,1,10,0.00
2013-5-15,65.7,51.5,39.5,54.0,42.1,27.0,95,71,58,30.27,29.87,8,1,14,0.02
2013-5-16,85.0,69.5,53.7,56.0,45.4,38.0,97,48,21,30.04,29.90,8,2,13,0.02
2013-5-17,75.4,61.5,50.6,45.0,41.5,37.0,72,50,30,30.40,30.04,6,1,9,0.00
2013-5-18,71.0,57.3,47.1,53.0,45.9,38.0,92,68,43,30.51,30.41,6,1,10,0.00
2013-5-19,56.5,54.9,53.1,56.0,54.2,52.0,99,97,93,30.52,30.39,4,1,9,0.07
2013-5-20,83.1,66.2,55.0,67.0,61.1,55.0,100,86,55,30.38,30.15,6,1,9,0.07
2013-5-21,90.6,75.0,62.3,71.0,67.3,62.0,99,79,52,30.17,30.00,5,1,9,0.00
2013-5-22,80.4,69.1,60.6,70.0,65.1,58.0,96,87,69,30.10,30.00,5,1,10,0.00
2013-5-23,70.6,66.6,64.0,69.0,65.9,63.0,99,98,92,30.07,29.93,6,1,8,2.09
2013-5-24,63.9,53.1,42.3,64.0,52.3,41.0,100,97,91,30.15,29.86,7,2,14,0.25
2013-5-25,48.1,45.0,41.9,46.0,42.4,39.0,98,90,80,30.19,30.10,7,2,15,0.02
2013-5-26,63.6,52.6,43.7,43.0,39.1,34.0,84,63,40,30.39,30.12,11,2,15,0.02
2013-5-27,77.4,61.3,48.5,45.0,37.3,33.0,61,44,22,30.44,30.31,8,1,10,0.00
2013-5-28,67.7,56.5,48.0,57.0,48.7,38.0,99,77,45,30.41,30.34,4,0,6,0.23
2013-5-29,78.0,64.9,55.2,71.0,62.4,55.0,100,92,78,30.34,30.19,7,0,8,0.01
2013-5-30,94.6,77.9,64.9,71.0,66.1,63.0,96,70,39,30.31,30.23,7,1,8,0.01
2013-5-31,96.1,80.1,67.7,71.0,65.9,61.0,87,64,37,30.30,30.16,6,1,9,0.00
2013-6-1,92.5,77.0,64.3,72.0,67.6,61.0,96,75,48,30.19,30.07,5,1,7,0.00
2013-6-2,87.7,77.3,68.4,72.0,68.5,67.0,95,76,57,30.09,29.93,7,2,10,0.00
2013-6-3,82.8,70.8,59.9,69.0,63.0,52.0,99,78,57,30.09,29.97,5,1,7,0.79
2013-6-4,81.0,62.6,48.4,51.0,44.2,38.0,89,55,24,30.32,30.10,6,1,11,0.00
2013-6-5,78.2,63.5,50.0,51.0,45.6,38.0,78,55,33,30.41,30.30,5,1,8,0.00
2013-6-6,72.0,58.5,49.5,57.0,52.4,46.0,97,82,55,30.35,30.23,7,1,8,0.18
2013-6-7,60.3,57.6,55.0,60.0,56.9,54.0,99,98,96,30.23,29.90,6,1,8,1.40
2013-6-8,77.8,63.6,53.9,64.0,58.6,54.0,99,85,57,30.25,29.84,5,1,9,0.01
2013-6-9,83.3,66.7,57.4,62.0,51.1,-99.9,97,68,41,30.36,30.25,4,-32,10,0.01
2013-6-10,71.1,62.4,59.0,65.0,59.7,55.0,97,91,79,30.36,30.05,4,1,10,0.70
2013-6-11,79.9,66.4,59.1,68.0,62.0,57.0,100,87,62,30.05,29.81,8,1,14,0.15
2013-6-12,77.5,66.1,56.6,60.0,54.6,52.0,86,68,45,30.05,29.87,7,1,15,0.15
2013-6-13,58.1,56.2,52.2,57.0,54.9,52.0,98,95,87,30.03,29.75,9,1,12,0.90
2013-6-14,78.7,60.4,50.3,60.0,54.2,50.0,99,82,48,30.08,29.79,4,1,8,1.32
2013-6-15,83.6,68.5,57.2,57.0,53.7,49.0,89,63,32,30.20,30.08,5,1,9,0.00
2013-6-16,78.0,67.4,54.1,64.0,57.5,50.0,86,72,51,30.18,29.95,6,1,14,0.00
2013-6-17,88.9,73.1,60.5,66.0,61.6,55.0,97,71,32,30.10,30.01,5,1,10,0.00
2013-6-18,86.5,67.1,57.9,70.0,61.7,56.0,98,85,54,30.11,30.02,2,0,5,0.34
2013-6-19,80.0,64.7,53.7,57.0,52.4,48.0,96,68,34,30.37,30.10,4,1,7,0.34
2013-6-20,82.3,66.2,50.4,62.0,54.4,47.0,92,68,41,30.46,30.37,2,0,7,0.00
2013-6-21,85.5,69.2,55.2,66.0,59.1,54.0,94,73,48,30.48,30.41,4,1,8,0.00
2013-6-22,87.5,71.4,58.7,68.0,60.6,56.0,91,71,43,30.45,30.30,7,1,9,0.04
2013-6-23,92.1,75.7,61.7,72.0,65.8,57.0,90,73,46,30.37,30.23,5,1,9,0.04
2013-6-24,95.4,79.1,65.4,76.0,69.6,65.0,98,75,43,30.24,30.11,6,1,11,1.30
2013-6-25,93.6,76.9,64.3,77.0,69.5,64.0,100,80,50,30.18,29.98,8,1,15,0.06
2013-6-26,81.8,74.6,67.3,72.0,68.9,66.0,98,83,67,30.02,29.95,5,1,9,0.06
2013-6-27,88.4,73.9,64.4,75.0,69.1,64.0,100,86,59,30.01,29.70,4,1,9,0.49
2013-6-28,87.3,75.6,68.1,72.0,68.8,65.0,99,81,54,29.71,29.64,8,2,12,0.94
2013-6-29,84.7,73.3,64.3,71.0,66.9,64.0,99,82,54,29.89,29.67,4,1,10,0.00
2013-6-30,85.5,72.3,65.9,75.0,69.8,65.0,99,92,69,30.10,29.89,5,1,8,0.07
2013-7-1,72.8,70.9,68.5,73.0,70.7,68.0,100,99,96,30.23,30.09,4,0,7,0.12
2013-7-2,82.9,74.9,70.5,75.0,72.7,71.0,100,93,76,30.35,30.23,5,1,10,0.01
2013-7-3,84.8,76.3,70.6,77.0,73.1,69.0,98,90,73,30.42,30.34,3,1,7,0.05
2013-7-4,90.8,79.5,71.5,75.0,73.1,71.0,100,82,55,30.43,30.32,5,1,13,0.05
2013-7-5,94.9,82.2,72.5,75.0,72.4,70.0,93,74,49,30.38,30.26,4,1,11,0.00
2013-7-6,94.9,82.1,74.2,76.0,72.7,71.0,90,75,48,30.31,30.20,6,1,10,0.00
2013-7-7,96.9,82.6,72.6,79.0,73.9,65.0,97,76,54,30.23,30.10,5,1,10,0.00
2013-7-8,91.5,78.4,68.3,72.0,68.8,64.0,97,74,49,30.22,30.13,8,1,12,0.11
2013-7-9,90.8,75.4,66.2,76.0,70.6,66.0,99,87,54,30.26,30.18,2,0,8,0.19
2013-7-10,86.1,75.6,68.7,78.0,72.3,68.0,99,90,69,30.20,29.99,3,0,13,0.31
2013-7-11,88.9,76.2,67.0,72.0,68.5,61.0,94,78,53,30.12,29.97,6,1,7,0.31
2013-7-12,81.8,72.8,64.4,70.0,64.7,61.0,88,76,57,30.32,30.13,4,1,8,0.02
2013-7-13,82.4,70.6,63.8,74.0,68.4,62.0,98,93,76,30.49,30.32,2,0,3,0.05
2013-7-14,94.5,80.6,72.0,78.0,73.8,71.0,100,82,51,30.52,30.41,3,0,8,0.14
2013-7-15,97.7,82.6,74.6,78.0,73.0,69.0,89,74,51,30.42,30.32,4,0,7,0.00
2013-7-16,98.5,81.8,69.3,74.0,69.8,66.0,92,70,39,30.41,30.33,3,0,5,0.00
2013-7-17,100.1,83.1,70.6,77.0,71.7,68.0,93,71,42,30.39,30.24,2,0,4,0.00
2013-7-18,101.8,85.6,74.9,78.0,73.9,69.0,87,70,43,30.24,30.13,4,1,8,0.00
2013-7-19,97.2,86.0,75.2,79.0,74.7,71.0,90,70,52,30.15,29.95,6,1,10,0.00
2013-7-20,93.5,82.4,73.4,76.0,72.2,68.0,87,72,50,30.03,29.89,7,1,9,0.00
2013-7-21,94.2,78.0,68.3,70.0,65.5,59.0,89,68,33,30.15,30.02,2,0,4,0.00
2013-7-22,86.2,74.0,65.3,76.0,69.0,62.0,98,85,61,30.16,29.99,3,0,11,0.41
2013-7-23,90.3,76.0,68.8,75.0,71.9,68.0,100,89,54,29.99,29.75,3,1,12,0.21
2013-7-24,84.1,72.1,60.9,69.0,65.4,53.0,99,80,52,30.15,29.80,5,1,10,0.21
2013-7-25,70.3,62.4,56.6,62.0,55.3,49.0,90,78,65,30.27,30.15,4,1,7,0.00
2013-7-26,86.8,70.2,61.9,67.0,61.5,57.0,93,75,47,30.25,30.19,5,0,6,0.00
2013-7-27,86.5,71.6,58.5,68.0,62.4,58.0,99,75,48,30.24,30.14,4,1,8,0.00
2013-7-28,75.2,68.4,62.2,72.0,66.7,61.0,99,94,79,30.18,30.11,3,0,8,0.28
2013-7-29,84.6,72.2,64.4,70.0,64.2,56.0,100,79,45,30.29,30.15,4,0,7,0.29
2013-7-30,84.8,69.1,58.0,63.0,58.6,55.0,91,71,43,30.36,30.29,5,1,9,0.00
2013-7-31,84.9,71.4,59.4,66.0,60.7,56.0,92,71,40,30.36,30.23,2,0,4,0.00
2013-8-1,73.9,64.6,61.6,67.0,63.5,60.0,99,96,79,30.24,30.04,4,1,6,0.48
2013-8-2,83.7,71.7,62.1,68.0,63.9,58.0,99,78,49,30.09,29.99,4,1,10,0.50
2013-8-3,81.1,70.0,63.8,67.0,62.6,56.0,94,78,58,30.09,30.02,4,1,13,0.01
2013-8-4,81.5,66.5,57.2,66.0,58.5,52.0,96,77,44,30.16,30.04,6,1,9,0.25
2013-8-5,83.1,66.3,55.3,58.0,52.1,48.0,88,64,35,30.25,30.16,4,1,8,0.25
2013-8-6,84.8,67.3,52.2,62.0,55.3,49.0,93,68,37,30.32,30.24,4,0,8,0.00
2013-8-7,75.8,66.5,58.1,67.0,62.6,57.0,98,88,71,30.34,30.25,5,1,8,0.04
2013-8-8,81.1,72.0,67.3,73.0,69.4,67.0,99,91,75,30.25,30.19,4,1,10,0.01
2013-8-9,83.6,73.4,70.6,77.0,71.9,70.0,100,95,77,30.20,29.98,7,1,9,0.37
2013-8-10,85.3,72.0,60.6,70.0,62.1,54.0,94,73,40,30.25,30.05,5,1,8,0.37
2013-8-11,82.1,67.2,52.8,64.0,57.1,52.0,98,73,39,30.32,30.22,2,0,7,0.00
2013-8-12,86.8,71.7,60.5,66.0,61.7,58.0,99,75,40,30.23,30.11,0,0,6,0.00
2013-8-13,77.5,68.9,63.7,71.0,66.6,62.0,99,92,75,30.12,29.88,3,0,5,0.03
2013-8-14,74.6,64.9,55.6,64.0,53.2,49.0,95,67,48,30.23,29.94,8,2,16,0.03
2013-8-15,78.6,64.0,53.9,58.0,52.5,50.0,89,68,40,30.34,30.23,5,1,10,0.00
2013-8-16,84.0,65.7,52.5,61.0,54.9,50.0,92,71,37,30.40,30.32,3,0,6,0.00
2013-8-17,86.0,68.1,54.2,64.0,57.9,53.0,98,73,36,30.49,30.41,2,0,3,0.00
2013-8-18,78.4,66.8,59.5,68.0,62.3,56.0,97,85,66,30.46,30.33,1,0,3,0.00
2013-8-19,79.2,69.6,60.2,68.0,63.2,60.0,98,81,62,30.32,30.22,3,1,10,0.00
2013-8-20,90.2,73.6,62.5,68.0,63.7,61.0,96,74,40,30.32,30.24,4,0,5,0.00
2013-8-21,92.9,73.7,59.9,68.0,63.3,59.0,97,74,37,30.37,30.23,4,0,6,0.00
2013-8-22,80.6,71.4,65.8,72.0,68.3,63.0,99,90,75,30.25,30.06,4,1,9,0.10
2013-8-23,84.1,71.1,59.0,67.0,61.1,51.0,96,73,44,30.32,30.07,4,1,5,0.00
2013-8-24,84.1,66.1,54.5,59.0,53.9,50.0,86,68,38,30.55,30.33,3,0,5,0.00
2013-8-25,85.7,67.3,52.3,61.0,55.0,51.0,96,69,35,30.60,30.41,4,0,7,0.00
2013-8-26,74.7,68.7,65.1,69.0,63.0,56.0,98,82,65,30.42,30.10,5,0,11,0.35
2013-8-27,88.5,72.8,67.0,72.0,68.6,66.0,99,88,57,30.10,30.00,3,1,7,0.83
2013-8-28,88.8,70.9,64.7,74.0,68.0,64.0,100,91,54,30.10,30.04,4,0,11,0.27
2013-8-29,82.4,69.4,64.4,71.0,67.1,64.0,100,93,66,30.22,30.10,2,0,4,0.28
2013-8-30,88.1,72.9,64.9,72.0,67.8,64.0,98,85,54,30.22,30.04,7,1,8,0.00
2013-8-31,81.6,74.7,70.1,74.0,71.6,69.0,96,90,78,30.04,29.97,5,1,8,0.00
2013-9-1,82.3,75.4,71.0,75.0,72.5,70.0,99,91,74,30.03,29.98,4,1,7,0.01
2013-9-2,83.1,73.2,67.7,75.0,71.0,67.0,99,93,77,29.99,29.89,2,0,9,0.04
2013-9-3,79.0,68.1,61.8,68.0,63.3,57.0,100,86,50,30.07,29.91,5,0,11,0.01
2013-9-4,83.4,68.4,59.1,61.0,58.1,56.0,91,72,43,30.18,30.07,5,1,11,0.01
2013-9-5,77.4,66.6,54.7,63.0,54.2,45.0,86,66,42,30.36,30.10,5,1,9,0.00
2013-9-6,74.1,57.1,45.3,49.0,44.5,40.0,90,66,31,30.47,30.34,3,1,6,0.00
2013-9-7,80.8,62.5,48.1,60.0,50.6,44.0,89,68,35,30.33,30.09,5,0,7,0.00
2013-9-8,81.0,68.0,53.4,65.0,53.9,43.0,79,62,29,30.29,30.01,6,2,8,0.00
2013-9-9,73.1,58.5,43.8,57.0,48.6,42.0,93,72,43,30.45,30.29,4,1,7,0.00
2013-9-10,82.4,69.4,62.0,74.0,66.7,57.0,99,91,75,30.37,30.24,6,1,11,0.05
2013-9-11,95.1,80.5,71.4,80.0,73.8,68.0,97,81,58,30.30,30.14,6,1,17,0.00
2013-9-12,79.4,71.7,66.0,74.0,69.7,66.0,99,93,79,30.16,29.86,5,1,14,1.02
2013-9-13,75.3,64.1,54.1,65.0,60.9,51.0,99,90,63,30.04,29.81,4,1,8,0.11
2013-9-14,67.2,55.4,46.9,54.0,49.1,45.0,97,80,56,30.33,30.04,4,1,6,0.11
2013-9-15,72.4,55.6,42.9,55.0,48.1,42.0,97,79,40,30.42,30.29,3,0,7,0.00
2013-9-16,72.6,59.7,49.2,57.0,53.7,43.0,95,82,55,30.48,30.23,3,1,6,0.00
2013-9-17,69.0,51.8,40.9,48.0,42.5,38.0,92,73,42,30.66,30.48,4,1,6,0.00
2013-9-18,75.9,54.5,41.0,53.0,45.7,40.0,99,77,36,30.57,30.39,3,0,6,0.00
2013-9-19,81.0,59.9,47.9,57.0,50.3,45.0,93,74,35,30.40,30.27,5,0,6,0.00
2013-9-20,81.6,62.5,50.6,62.0,54.9,50.0,99,79,42,30.29,30.19,3,0,7,0.00
2013-9-21,71.9,63.3,54.4,66.0,60.8,54.0,99,91,78,30.21,29.84,5,1,18,0.55
2013-9-22,67.6,59.5,48.6,61.0,51.8,44.0,98,77,52,30.12,29.85,5,1,15,0.82
2013-9-23,69.4,53.5,42.2,48.0,43.6,40.0,93,72,41,30.27,30.11,4,1,8,0.00
2013-9-24,75.6,53.3,39.4,53.0,45.1,38.0,97,77,38,30.27,30.08,4,0,7,0.00
2013-9-25,74.9,55.3,42.9,54.0,47.3,42.0,98,78,40,30.18,30.09,2,0,5,0.00
2013-9-26,72.8,58.4,49.6,56.0,52.0,47.0,97,81,53,30.33,30.17,4,0,6,0.00
2013-9-27,69.7,56.6,46.2,56.0,51.3,45.0,98,84,59,30.49,30.33,2,0,5,0.00
2013-9-28,76.7,58.6,47.1,58.0,52.5,46.0,99,82,48,30.56,30.45,2,0,5,0.00
2013-9-29,77.7,57.8,47.2,59.0,52.6,47.0,99,85,48,30.45,30.29,3,0,7,0.01
2013-9-30,75.6,57.4,47.4,58.0,51.5,47.0,99,83,45,30.31,30.18,2,0,4,0.00
2013-10-1,81.1,62.0,48.5,61.0,54.6,48.0,99,80,46,30.22,30.10,3,0,7,0.00
2013-10-2,81.4,68.3,57.0,64.0,58.4,54.0,93,72,54,30.21,30.11,5,1,11,0.00
2013-10-3,80.1,63.9,51.8,60.0,55.5,49.0,96,76,43,30.33,30.21,3,0,4,0.00
2013-10-4,87.4,67.7,57.6,69.0,62.3,57.0,99,85,55,30.27,30.17,4,0,7,0.00
2013-10-5,79.2,65.7,60.0,66.0,62.5,59.0,98,90,63,30.30,30.23,2,0,4,0.00
2013-10-6,64.3,62.0,60.4,64.0,61.6,60.0,99,98,96,30.30,30.23,3,1,9,0.01
2013-10-7,72.6,62.2,55.6,69.0,56.5,-99.9,100,93,88,30.23,29.92,7,-30,15,0.08
2013-10-8,68.3,55.3,47.8,52.0,46.7,44.0,92,75,46,30.56,30.17,5,1,9,0.00
2013-10-9,65.6,52.0,42.4,48.0,44.2,40.0,92,77,43,30.65,30.54,3,0,5,0.00
2013-10-10,57.0,51.1,45.4,50.0,46.2,42.0,91,83,75,30.54,30.34,2,0,4,0.00
2013-10-11,68.1,59.5,51.2,60.0,53.0,46.0,88,80,64,30.34,30.26,3,0,6,0.00
2013-10-12,76.3,60.1,47.0,56.0,50.2,44.0,90,72,44,30.53,30.32,4,0,10,0.00
2013-10-13,70.6,56.3,47.0,52.0,49.6,46.0,98,80,51,30.61,30.52,3,0,6,0.00
2013-10-14,70.2,53.3,43.7,53.0,48.4,43.0,99,85,52,30.58,30.45,3,0,7,0.00
2013-10-15,75.9,57.3,47.6,59.0,50.9,41.0,99,81,54,30.48,30.33,4,0,5,0.00
2013-10-16,63.1,55.6,48.4,57.0,52.4,46.0,96,89,79,30.34,30.12,4,0,6,0.00
2013-10-17,76.7,64.4,58.2,61.0,58.7,56.0,98,83,50,30.12,29.85,5,1,8,0.01
2013-10-18,67.2,58.9,50.5,62.0,47.2,41.0,97,67,41,30.18,29.84,11,2,14,0.01
2013-10-19,63.5,53.0,43.7,51.0,44.4,40.0,96,74,48,30.18,29.94,5,1,9,0.11
2013-10-20,62.0,51.7,43.2,51.0,40.8,36.0,97,69,40,30.26,29.95,8,2,13,0.11
2013-10-21,67.7,53.0,41.6,44.0,40.0,37.0,84,64,35,30.35,30.18,6,1,9,0.00
2013-10-22,60.1,50.6,42.7,51.0,45.3,39.0,97,82,63,30.18,29.95,3,0,7,0.00
2013-10-23,56.6,44.0,35.6,41.0,36.6,34.0,95,77,47,30.03,29.84,6,0,8,0.00
2013-10-24,53.7,43.0,36.9,36.0,31.1,27.0,86,65,40,30.20,29.96,11,2,14,0.00
2013-10-25,49.8,42.9,36.9,35.0,31.1,28.0,81,64,47,30.43,30.20,8,2,16,0.00
2013-10-26,54.0,45.3,36.2,35.0,30.6,27.0,85,59,38,30.42,30.10,7,2,15,0.00
2013-10-27,56.7,48.3,42.6,34.0,31.7,30.0,67,54,38,30.32,30.05,10,2,17,0.00
2013-10-28,61.8,47.0,33.9,36.0,33.3,30.0,88,61,35,30.55,30.32,8,1,12,0.00
2013-10-29,48.3,40.5,34.1,30.0,28.5,27.0,78,63,47,30.66,30.55,5,0,6,0.00
2013-10-30,52.6,43.2,34.1,46.0,37.5,28.0,97,81,64,30.57,30.42,4,0,6,0.00
2013-10-31,58.0,50.7,42.9,58.0,50.4,42.0,99,99,97,30.46,30.00,4,0,6,0.01
2013-11-1,69.1,62.2,56.0,63.0,55.4,45.0,99,79,56,29.98,29.72,8,2,23,0.02
2013-11-2,66.5,52.7,45.5,54.0,45.4,42.0,92,78,46,29.99,29.82,4,0,8,0.01
2013-11-3,46.0,39.7,30.9,43.0,31.3,18.0,93,72,57,30.69,29.99,6,2,11,0.01
2013-11-4,46.3,33.5,25.4,22.0,19.5,17.0,75,58,33,30.91,30.70,6,1,10,0.00
2013-11-5,52.0,41.3,31.1,39.0,32.1,20.0,91,71,56,30.91,30.72,6,1,10,0.00
2013-11-6,56.7,48.5,39.8,48.0,43.5,38.0,96,84,65,30.72,30.27,7,1,11,0.00
2013-11-7,58.4,50.2,38.2,55.0,45.6,28.0,97,85,59,30.27,29.95,7,1,22,0.00
2013-11-8,46.0,39.7,36.6,31.0,28.7,26.0,80,66,48,30.41,30.12,12,3,18,0.00
2013-11-9,48.4,40.4,35.8,31.0,27.8,25.0,72,62,43,30.51,30.23,6,1,11,0.00
2013-11-10,56.6,44.6,36.4,37.0,33.9,29.0,85,67,46,30.26,30.03,11,2,15,0.00
2013-11-11,50.7,44.8,38.8,32.0,29.1,27.0,64,55,43,30.41,30.17,10,2,17,0.00
2013-11-12,49.0,33.8,26.6,36.0,24.5,17.0,93,70,51,30.51,30.16,7,2,13,0.02
2013-11-13,37.9,28.8,20.0,20.0,15.7,12.0,80,60,35,30.62,30.49,7,2,13,0.02
2013-11-14,53.4,40.1,29.7,22.0,18.2,15.0,64,43,25,30.48,30.37,10,2,15,0.00
2013-11-15,56.6,45.0,34.5,28.0,22.1,16.0,56,41,27,30.47,30.38,5,1,10,0.00
2013-11-16,61.8,48.3,41.1,44.0,36.3,22.0,97,66,38,30.56,30.46,4,0,9,0.02
2013-11-17,56.8,51.3,45.1,57.0,50.9,44.0,99,98,97,30.51,29.98,5,1,10,0.06
2013-11-18,63.3,56.5,46.0,58.0,41.1,27.0,99,60,36,29.98,29.78,13,3,20,0.37
2013-11-19,45.7,38.3,29.3,30.0,25.1,21.0,74,60,49,30.59,29.98,12,4,22,0.00
2013-11-20,41.6,30.4,24.4,21.0,17.1,14.0,73,59,34,30.88,30.60,6,2,9,0.00
2013-11-21,48.1,35.5,21.4,37.0,25.9,16.0,83,69,47,30.89,30.64,4,0,11,0.00
2013-11-22,52.0,46.9,42.7,48.0,44.2,37.0,98,90,80,30.63,30.14,8,1,11,0.01
2013-11-23,50.6,37.4,24.9,45.0,24.9,13.0,86,62,43,30.27,30.11,10,3,19,0.00
2013-11-24,28.0,22.4,19.4,14.0,5.8,-2.0,64,50,28,30.58,30.22,15,4,25,0.00
2013-11-25,34.2,25.4,17.0,15.0,12.4,8.0,77,59,42,30.71,30.55,7,2,18,0.00
2013-11-26,40.8,32.2,29.5,40.0,23.5,13.0,98,72,51,30.57,30.06,5,1,8,0.07
2013-11-27,56.4,42.1,30.8,56.0,40.3,21.0,99,93,68,30.04,29.59,15,3,22,0.27
2013-11-28,31.6,27.0,23.0,22.0,14.9,10.0,74,61,45,30.70,29.92,15,3,26,0.00
2013-11-29,34.5,27.8,21.4,22.0,17.9,12.0,78,67,57,30.97,30.70,5,1,9,0.00
2013-11-30,33.0,25.0,15.4,25.0,15.4,10.0,82,68,41,31.01,30.64,3,0,8,0.00
2013-12-1,43.8,35.4,27.2,32.0,29.1,25.0,94,78,63,30.63,30.25,3,0,5,0.00
2013-12-2,44.9,35.7,31.3,35.0,31.3,28.0,95,84,67,30.25,30.12,1,0,3,0.00
2013-12-3,45.3,34.1,27.8,38.0,31.8,27.0,98,91,71,30.24,30.11,3,0,6,0.00
2013-12-4,51.5,38.3,29.1,38.0,32.8,28.0,96,82,57,30.38,30.25,2,0,5,0.02
2013-12-5,51.8,47.8,42.4,52.0,47.1,38.0,99,97,83,30.37,30.16,4,0,7,0.00
2013-12-6,52.3,41.7,32.1,52.0,41.0,31.0,100,97,92,30.37,30.09,6,2,12,0.00
2013-12-7,37.9,31.8,26.5,33.0,27.1,17.0,98,83,65,30.75,30.32,7,1,11,0.00
2013-12-8,29.2,26.1,21.3,24.0,18.9,15.0,92,74,67,30.84,30.66,5,1,11,0.00
2013-12-9,36.6,31.2,26.1,34.0,29.8,25.0,98,94,87,30.65,30.19,7,1,17,0.00
2013-12-10,35.0,30.7,25.5,31.0,26.1,14.0,93,83,62,30.30,30.09,10,2,17,0.00
2013-12-11,29.0,25.3,22.7,20.0,15.9,13.0,76,67,62,30.52,30.31,10,2,18,0.00
2013-12-12,23.9,19.7,15.5,16.0,9.2,5.0,78,64,49,30.58,30.37,8,2,13,0.00
2013-12-13,31.3,24.4,18.0,18.0,11.8,5.0,75,59,52,30.58,30.33,13,3,16,0.00
2013-12-14,20.8,17.3,14.6,19.0,13.6,11.0,94,85,67,30.76,30.15,4,1,8,0.00
2013-12-15,35.2,27.7,19.9,31.0,23.4,18.0,96,85,68,30.14,29.79,10,2,21,0.00
2013-12-16,29.9,22.7,14.8,21.0,11.1,7.0,72,61,48,30.46,30.02,7,2,21,0.00
2013-12-17,18.4,15.0,10.7,17.0,11.6,5.0,93,86,68,30.46,30.21,2,0,4,0.00
2013-12-18,33.4,24.1,12.1,24.0,18.1,10.0,94,79,63,30.38,30.20,7,2,19,0.00
2013-12-19,45.3,33.8,23.6,30.0,24.0,18.0,82,68,47,30.39,30.24,8,1,13,0.00
2013-12-20,46.5,38.9,32.4,34.0,31.5,29.0,86,75,59,30.32,30.18,4,0,9,0.00
2013-12-21,52.5,45.4,38.4,48.0,40.7,33.0,96,83,71,30.21,30.11,3,0,7,0.01
2013-12-22,64.0,58.4,49.2,61.0,55.8,48.0,99,91,80,30.16,29.97,7,1,16,0.01
2013-12-23,57.3,47.4,35.5,55.0,46.5,34.0,98,96,91,30.36,30.14,7,1,13,0.00
2013-12-24,35.6,29.7,20.7,33.0,24.2,9.0,93,80,59,30.56,30.32,6,2,19,0.00
2013-12-25,25.5,18.7,12.8,14.0,8.7,6.0,77,65,50,30.76,30.56,8,2,18,0.00
2013-12-26,31.4,26.3,19.3,25.0,21.1,13.0,86,80,74,30.68,30.39,9,1,13,0.00
2013-12-27,34.6,30.8,26.2,25.0,21.4,19.0,80,69,56,30.57,30.48,11,2,13,0.00
2013-12-28,48.7,37.5,28.0,30.0,26.5,23.0,83,66,45,30.49,30.29,6,1,13,0.00
2013-12-29,45.1,38.9,36.7,37.0,32.9,28.0,97,80,53,30.28,29.70,7,1,12,0.01
2013-12-30,40.4,31.4,14.9,36.0,23.5,9.0,96,73,55,30.43,29.89,14,3,18,0.00
2013-12-31,28.1,19.9,12.4,23.0,11.9,7.0,88,72,54,30.50,30.28,7,2,14,0.00
2014-1-1,30.5,23.6,18.6,22.0,13.8,8.0,86,67,52,30.64,30.49,8,1,12,0.00
2014-1-2,21.9,13.7,4.0,19.0,10.7,1.0,90,88,85,30.52,30.01,7,2,9,0.00